CW6004 Weather Reports


time (UTC)temp
F
wind
direction
speed
knots
gust
knots
rain 1hr
in
rain 24hr
in
rain mn
in
humidity
%
barometer
mb
20260906195326 86 82 2.6 7.0 0.00 0.00 0.00 68 1013.2
20260906194832 86 45 2.6 7.0 0.00 0.00 0.00 69 1013.3
20260906194319 86 19 2.6 4.3 0.00 0.00 0.00 68 1013.3
20260906193825 86 76 0.9 3.5 0.00 0.00 0.00 68 1013.5
20260906193314 86 20 1.7 3.5 0.00 0.00 0.00 68 1013.5
20260906192819 86 33 1.7 4.3 0.00 0.00 0.00 68 1013.6
20260906192326 86 28 1.7 5.2 0.00 0.00 0.00 66 1013.6
20260906191811 86 23 2.6 5.2 0.00 0.00 0.00 66 1013.6
20260906191319 86 74 1.7 7.8 0.00 0.00 0.00 65 1013.5
20260906190824 87 25 1.7 7.8 0.00 0.00 0.00 65 1013.5
20260906190329 87 26 1.7 4.3 0.00 0.00 0.00 64 1013.4
20260906185813 88 26 1.7 4.3 0.00 0.00 0.00 65 1013.6
20260906185321 88 90 1.7 4.3 0.00 0.00 0.00 66 1013.5
20260906184825 87 34 1.7 7.0 0.00 0.00 0.00 66 1013.7
20260906184353 87 29 2.6 7.0 0.00 0.00 0.00 66 1013.9
20260906183835 87 74 1.7 5.2 0.00 0.00 0.00 68 1013.9
20260906183340 87 48 0.9 5.2 0.00 0.00 0.00 63 1013.9
20260906182843 87 355 2.6 7.0 0.00 0.00 0.00 66 1013.9
20260906182345 87 146 2.6 7.0 0.00 0.00 0.00 64 1014.1
20260906181810 86 15 2.6 7.0 0.00 0.00 0.00 65 1014.2
20260906181318 87 62 0.9 5.2 0.00 0.00 0.00 68 1014.3
20260906180822 87 186 1.7 7.0 0.00 0.00 0.00 64 1014.5
20260906180328 87 22 2.6 7.0 0.00 0.00 0.00 64 1014.4
20260906175814 87 105 1.7 4.3 0.00 0.00 0.00 66 1014.5
20260906175321 87 329 1.7 4.3 0.00 0.00 0.00 67 1014.5
20260906174824 87 355 1.7 4.3 0.00 0.00 0.00 68 1014.5
20260906174331 86 275 0.9 3.5 0.00 0.00 0.00 71 1014.6
20260906173817 85 188 0.0 3.5 0.00 0.00 0.00 74 1014.5
20260906173325 85 127 1.7 4.3 0.00 0.00 0.00 73 1014.4
20260906172829 84 360 2.6 4.3 0.00 0.00 0.00 71 1014.5
20260906172314 84 41 1.7 3.5 0.00 0.00 0.00 72 1014.7
20260906171820 84 44 1.7 3.5 0.00 0.00 0.00 74 1014.7
20260906171327 84 103 0.9 5.2 0.00 0.00 0.00 71 1014.7
20260906170813 84 202 1.7 5.2 0.00 0.00 0.00 71 1014.5
20260906170321 84 115 0.9 5.2 0.00 0.00 0.00 70 1014.5
20260906165828 84 96 1.7 3.5 0.00 0.00 0.00 68 1014.5
20260906165317 84 26 0.9 3.5 0.00 0.00 0.00 67 1014.5
20260906164823 85 47 0.9 2.6 0.00 0.00 0.00 69 1014.4
20260906164330 84 85 0.9 1.7 0.00 0.00 0.00 70 1014.4
20260906163835 83 171 0.9 2.6 0.00 0.00 0.00 73 1014.3
20260906163342 82 31 0.9 2.6 0.00 0.00 0.00 74 1014.4
20260906162846 81 26 0.0 0.0 0.00 0.00 0.00 80 1014.4
20260906162349 80 26 0.0 0.0 0.00 0.00 0.00 79 1014.2
20260906161850 79 355 0.0 0.0 0.00 0.00 0.00 81 1014.2
20260906161314 79 355 0.0 0.0 0.00 0.00 0.00 84 1014.2
20260906160819 78 346 0.0 0.0 0.00 0.00 0.00 83 1014.2
20260906160321 78 195 0.0 0.0 0.00 0.00 0.00 84 1014.2
20260906155811 77 195 0.0 0.0 0.00 0.00 0.00 84 1014.3
20260906155333 77 195 0.0 0.0 0.00 0.00 0.00 85 1014.2
20260906154829 77 195 0.0 0.0 0.00 0.00 0.00 86 1014.1
20260906154317 77 252 0.0 0.0 0.00 0.00 0.00 85 1014.2
20260906153819 76 257 0.0 0.0 0.00 0.00 0.00 86 1014.1
20260906153323 76 49 0.0 0.0 0.00 0.00 0.00 85 1014.0
20260906152829 76 49 0.0 0.0 0.00 0.00 0.00 86 1013.7
20260906152316 76 49 0.0 0.0 0.00 0.00 0.00 86 1013.6
20260906151819 76 49 0.0 0.0 0.00 0.00 0.00 87 1013.4
20260906151326 76 49 0.0 0.9 0.00 0.00 0.00 88 1013.4
20260906150811 75 49 0.0 0.9 0.00 0.00 0.00 87 1013.4
20260906150014 75 48 0.0 1.7 0.00 0.00 0.00 89 1013.8
20260906145328 74 75 0.0 0.0 0.00 0.00 0.00 88 1013.8
20260906144827 74 75 0.0 0.0 0.00 0.00 0.00 88 1013.8
20260906144313 74 75 0.0 0.0 0.00 0.00 0.00 88 1013.8
20260906143821 74 75 0.0 0.0 0.00 0.00 0.00 88 1013.9
20260906143326 74 75 0.0 0.0 0.00 0.00 0.00 88 1014.1
20260906142829 74 75 0.0 0.0 0.00 0.00 0.00 88 1014.3
20260906142318 74 75 0.0 1.7 0.00 0.00 0.00 88 1014.6
20260906141823 74 75 0.0 1.7 0.00 0.00 0.00 87 1014.8
20260906141332 74 75 0.9 1.7 0.00 0.00 0.00 87 1014.7
20260906140815 74 119 0.9 4.3 0.00 0.00 0.00 86 1014.6
20260906140322 74 42 1.7 4.3 0.00 0.00 0.00 86 1014.5
20260906135829 74 77 0.9 3.5 0.00 0.00 0.00 85 1014.7
20260906135337 74 128 0.0 2.6 0.00 0.00 0.00 86 1014.7
20260906134842 74 106 0.0 0.0 0.00 0.00 0.00 86 1014.5
20260906134350 74 345 0.0 0.0 0.00 0.00 0.00 86 1014.4
20260906133836 74 313 0.0 0.0 0.00 0.00 0.00 85 1014.3
20260906133339 74 268 0.0 0.0 0.00 0.00 0.00 85 1014.3
20260906132825 74 268 0.0 0.0 0.00 0.00 0.00 86 1014.3
20260906132313 74 268 0.0 0.0 0.00 0.00 0.00 85 1014.4
20260906131819 74 304 0.0 0.0 0.00 0.00 0.00 86 1014.4
20260906131329 74 304 0.0 0.0 0.00 0.00 0.00 87 1014.4
20260906130814 74 304 0.0 0.0 0.00 0.00 0.00 87 1014.4
20260906130322 74 304 0.0 0.0 0.00 0.00 0.00 88 1014.6
20260906125829 74 304 0.0 0.0 0.00 0.00 0.00 88 1014.5
20260906125317 74 304 0.0 0.0 0.00 0.00 0.00 88 1014.7
20260906124824 74 304 0.0 0.0 0.00 0.00 0.00 88 1014.8
20260906124330 74 304 0.0 0.0 0.00 0.00 0.00 87 1014.7
20260906123816 74 304 0.0 0.0 0.00 0.00 0.00 87 1014.5
20260906123326 74 304 0.0 0.0 0.00 0.00 0.00 87 1014.3
20260906122812 75 304 0.0 0.0 0.00 0.00 0.00 87 1014.2
20260906122320 75 304 0.0 0.0 0.00 0.00 0.00 87 1014.2
20260906121827 75 274 0.0 0.0 0.00 0.00 0.00 88 1014.2
20260906121317 75 274 0.0 0.0 0.00 0.00 0.00 88 1014.1
20260906120823 75 264 0.0 0.0 0.00 0.00 0.00 88 1014.1
20260906120329 75 251 0.0 0.0 0.00 0.00 0.00 88 1013.9
20260906115816 75 251 0.0 0.0 0.00 0.00 0.00 88 1013.7
20260906115326 75 251 0.0 0.9 0.00 0.00 0.00 88 1013.7
20260906114812 75 227 0.0 0.9 0.00 0.00 0.00 88 1013.6
20260906114320 75 227 0.0 0.9 0.00 0.00 0.00 88 1013.6
20260906113827 75 224 0.0 0.0 0.00 0.00 0.00 88 1013.4
20260906113316 75 224 0.0 0.0 0.00 0.00 0.00 88 1013.4
20260906112823 75 224 0.0 0.9 0.00 0.00 0.00 88 1013.5
20260906112312 75 224 0.0 3.5 0.00 0.00 0.00 88 1013.4
20260906111819 75 236 0.0 7.8 0.00 0.00 0.00 88 1013.4
20260906111327 75 238 1.7 7.8 0.00 0.00 0.00 89 1012.9
20260906110814 74 225 1.7 5.2 0.00 0.00 0.00 91 1012.6
20260906110320 74 173 1.7 3.5 0.00 0.00 0.00 92 1013.5
20260906105826 74 243 0.0 0.0 0.00 0.00 0.00 93 1012.4
20260906105315 74 168 0.0 0.9 0.00 0.00 0.00 92 1012.2
20260906104821 74 169 0.0 2.6 0.00 0.00 0.00 93 1012.1
20260906104330 74 168 0.9 2.6 0.00 0.00 0.00 93 1012.0
20260906103817 74 151 0.0 0.0 0.00 0.00 0.00 93 1012.1
20260906103326 74 182 0.0 0.0 0.00 0.00 0.00 93 1012.1
20260906102813 74 182 0.0 0.0 0.00 0.00 0.00 93 1012.0
20260906102322 74 162 0.0 0.0 0.00 0.00 0.00 93 1012.1
20260906101829 74 163 0.0 0.0 0.00 0.00 0.00 93 1012.1
20260906101317 74 90 0.0 0.0 0.00 0.00 0.00 93 1012.1
20260906100823 74 90 0.0 0.0 0.00 0.00 0.00 93 1012.2
20260906100330 74 90 0.0 0.0 0.00 0.00 0.00 93 1012.3
20260906095816 74 90 0.0 0.0 0.00 0.00 0.00 93 1012.3
20260906095326 74 90 0.0 0.0 0.00 0.00 0.00 93 1012.3
20260906094812 74 90 0.0 0.0 0.00 0.00 0.00 93 1012.2
20260906094320 74 90 0.0 0.0 0.00 0.00 0.00 93 1012.2
20260906093827 74 89 0.0 0.0 0.00 0.00 0.00 93 1012.2
20260906093317 74 74 0.0 0.0 0.00 0.00 0.00 93 1012.2
20260906092823 74 74 0.0 0.0 0.00 0.00 0.00 93 1012.1
20260906092331 74 74 0.0 0.0 0.00 0.00 0.00 93 1012.1
20260906091818 75 65 0.0 0.0 0.00 0.00 0.00 93 1012.0
20260906091327 75 104 0.0 0.0 0.00 0.00 0.00 93 1011.9
20260906090813 75 142 0.0 0.0 0.00 0.00 0.00 93 1011.9
20260906090320 75 141 0.0 0.0 0.00 0.00 0.00 93 1011.8
20260906085825 75 165 0.0 0.0 0.00 0.00 0.00 93 1011.9
20260906085314 75 120 0.0 0.0 0.00 0.00 0.00 93 1011.9
20260906084820 75 120 0.0 0.0 0.00 0.00 0.00 93 1012.0
20260906084329 75 171 0.0 1.7 0.00 0.00 0.00 93 1012.1
20260906083815 75 173 0.0 1.7 0.00 0.00 0.00 93 1012.1
20260906083323 75 173 0.0 0.0 0.00 0.00 0.00 94 1012.1
20260906082829 75 134 0.0 0.0 0.00 0.00 0.00 94 1012.2
20260906082315 75 185 0.0 0.0 0.00 0.00 0.00 94 1012.3
20260906081820 75 160 0.0 0.0 0.00 0.00 0.00 94 1012.3
20260906081328 75 95 0.0 0.0 0.00 0.00 0.00 94 1012.3
20260906080813 75 175 0.0 0.0 0.00 0.00 0.00 94 1012.4
20260906080319 76 175 0.0 0.0 0.00 0.00 0.00 94 1012.4
20260906075826 76 175 0.0 0.0 0.00 0.00 0.00 94 1012.5
20260906075314 76 175 0.0 0.0 0.00 0.00 0.00 94 1012.6
20260906074819 76 175 0.0 0.0 0.00 0.00 0.00 94 1012.6
20260906074326 76 175 0.0 0.0 0.00 0.00 0.00 94 1012.6
20260906073812 76 175 0.0 0.0 0.00 0.00 0.00 94 1012.6
20260906073320 76 175 0.0 0.0 0.00 0.00 0.00 94 1012.5
20260906072827 76 175 0.0 1.7 0.00 0.00 0.00 94 1012.4
20260906072316 76 175 0.0 1.7 0.00 0.00 0.00 94 1012.3
20260906071821 76 147 0.0 2.6 0.00 0.00 0.00 94 1012.2
20260906071330 76 131 0.0 2.6 0.00 0.00 0.00 94 1012.2
20260906070816 76 169 0.9 2.6 0.00 0.00 0.00 94 1012.2
20260906070321 77 163 0.0 1.7 0.00 0.00 0.00 94 1012.2
20260906065827 77 154 0.9 3.5 0.00 0.00 0.00 94 1012.4
20260906065315 77 174 0.9 4.3 0.00 0.00 0.00 94 1012.5
20260906064821 77 126 0.0 0.9 0.00 0.00 0.00 93 1012.4
20260906064326 77 164 0.0 0.9 0.00 0.00 0.00 93 1012.4
20260906063816 77 98 0.0 1.7 0.00 0.00 0.00 93 1012.5
20260906063322 77 165 0.0 1.7 0.00 0.00 0.00 93 1012.4
20260906062811 77 113 0.0 1.7 0.00 0.00 0.00 93 1012.4
20260906062315 77 103 0.0 1.7 0.00 0.00 0.00 93 1012.3
20260906061820 77 109 0.0 1.7 0.00 0.00 0.00 93 1012.2
20260906061330 77 124 0.0 1.7 0.00 0.00 0.00 93 1012.2
20260906060815 77 124 0.9 3.5 0.00 0.00 0.00 93 1012.2
20260906060322 77 133 0.9 3.5 0.00 0.00 0.00 93 1012.2
20260906055829 77 167 1.7 4.3 0.00 0.00 0.00 93 1012.3
20260906055317 77 124 0.9 4.3 0.00 0.00 0.00 93 1012.3
20260906054824 77 167 1.7 4.3 0.00 0.00 0.00 93 1012.1
20260906054331 78 173 0.9 1.7 0.00 0.00 0.00 92 1012.1
20260906053817 78 93 0.0 1.7 0.00 0.00 0.00 92 1012.1
20260906053324 78 101 0.9 1.7 0.00 0.00 0.00 92 1012.2
20260906052829 78 94 0.0 1.7 0.00 0.00 0.00 92 1012.1
20260906052318 78 113 0.0 1.7 0.00 0.00 0.00 92 1012.1
20260906051824 78 175 0.0 2.6 0.00 0.00 0.00 92 1012.1
20260906051330 78 165 1.7 4.3 0.00 0.00 0.00 92 1012.1
20260906050814 78 165 2.6 4.3 0.00 0.00 0.00 92 1012.0
20260906050321 78 163 0.9 2.6 0.00 0.00 0.00 92 1012.1
20260906045826 78 169 0.9 2.6 0.00 0.00 0.00 92 1012.2
20260906045314 78 161 0.9 2.6 0.00 0.00 0.00 92 1012.3
20260906044819 78 186 0.9 4.3 0.00 0.00 0.00 91 1012.3
20260906044327 78 69 0.9 4.3 0.00 0.00 0.00 91 1012.2
20260906043814 78 118 1.7 3.5 0.00 0.00 0.00 91 1012.2
20260906043321 79 138 0.9 2.6 0.00 0.00 0.00 91 1012.3
20260906042825 79 85 0.0 2.6 0.00 0.00 0.00 91 1012.3
20260906042314 79 194 0.9 2.6 0.00 0.00 0.00 91 1012.3
20260906041820 79 161 0.0 1.7 0.00 0.00 0.00 91 1012.3
20260906041329 79 184 0.9 1.7 0.00 0.00 0.00 91 1012.3
20260906040815 79 144 0.0 3.5 0.00 0.00 0.00 90 1012.3
20260906040322 79 161 0.0 3.5 0.00 0.00 0.00 90 1012.3
20260906035825 79 150 0.9 2.6 0.00 0.00 0.00 90 1012.2
20260906035314 79 133 1.7 2.6 0.00 0.00 0.00 90 1012.2
20260906034820 79 198 0.9 2.6 0.00 0.00 0.00 90 1012.2
20260906034329 79 173 0.9 3.5 0.00 0.00 0.00 90 1012.1
20260906033817 79 99 0.0 3.5 0.00 0.00 0.00 90 1012.1
20260906033325 79 88 0.0 3.5 0.00 0.00 0.00 90 1012.2
20260906032812 79 120 0.0 3.5 0.00 0.00 0.00 90 1012.2
20260906032321 79 109 0.0 0.9 0.00 0.00 0.00 90 1012.2
20260906031821 80 153 0.0 0.0 0.00 0.00 0.00 90 1012.1
20260906031328 80 117 0.0 0.0 0.00 0.00 0.00 90 1012.1
20260906030835 80 123 0.0 0.0 0.00 0.00 0.00 90 1012.0
20260906030341 80 124 0.0 0.0 0.00 0.00 0.00 89 1012.0
20260906025846 80 190 0.0 0.0 0.00 0.00 0.00 89 1011.9
20260906025337 80 186 0.0 0.0 0.00 0.00 0.00 89 1011.8
20260906024842 80 126 0.0 0.0 0.00 0.00 0.00 89 1011.6
20260906024349 80 93 0.0 1.7 0.00 0.00 0.00 89 1011.7
20260906023833 80 167 0.0 1.7 0.00 0.00 0.00 89 1011.6
20260906023338 80 186 0.9 1.7 0.00 0.00 0.00 89 1011.5
20260906022843 80 145 0.0 0.0 0.00 0.00 0.00 89 1011.5
20260906022347 80 145 0.0 0.0 0.00 0.00 0.00 88 1011.3
20260906021830 81 145 0.0 1.7 0.00 0.00 0.00 88 1011.2
20260906021319 81 145 0.0 1.7 0.00 0.00 0.00 88 1011.2
20260906020825 81 145 0.0 0.0 0.00 0.00 0.00 87 1011.2
20260906020332 81 145 0.0 0.0 0.00 0.00 0.00 87 1011.2
20260906015819 81 145 0.0 0.0 0.00 0.00 0.00 86 1011.0
20260906015327 82 145 0.0 0.0 0.00 0.00 0.00 86 1010.9
20260906014814 82 145 0.0 0.0 0.00 0.00 0.00 85 1010.9
20260906014323 82 145 0.0 0.0 0.00 0.00 0.00 85 1010.7
20260906013829 82 145 0.0 0.0 0.00 0.00 0.00 85 1010.5
20260906013318 83 145 0.0 0.0 0.00 0.00 0.00 84 1010.5
20260906012825 83 145 0.0 0.0 0.00 0.00 0.00 84 1010.4
20260906012333 83 145 0.0 0.0 0.00 0.00 0.00 83 1010.3
20260906011818 84 145 0.0 0.0 0.00 0.00 0.00 83 1010.3
20260906011328 84 145 0.0 0.0 0.00 0.00 0.00 82 1010.3
20260906010815 84 145 0.0 0.0 0.00 0.00 0.00 82 1010.4
20260906010320 85 145 0.0 0.0 0.00 0.00 0.00 81 1010.3
20260906005827 85 145 0.0 0.0 0.00 0.00 0.00 80 1010.4
20260906005316 85 145 0.0 0.0 0.00 0.00 0.00 80 1010.4
20260906004823 86 145 0.0 0.0 0.00 0.00 0.00 79 1010.4
20260906004332 86 145 0.0 0.0 0.00 0.00 0.00 78 1010.5
20260906003818 86 145 0.0 0.0 0.00 0.00 0.00 78 1010.4
20260906003328 86 145 0.0 0.0 0.00 0.00 0.00 77 1010.4
20260906002815 87 147 0.0 0.0 0.00 0.00 0.00 77 1010.4
20260906002322 87 122 0.0 1.7 0.00 0.00 0.00 77 1010.4
20260906001826 87 167 0.0 1.7 0.00 0.00 0.00 76 1010.4
20260906001332 87 148 0.9 2.6 0.00 0.00 0.00 76 1010.4
20260906000838 87 167 1.7 2.6 0.00 0.00 0.00 76 1010.4
20260906000342 88 183 0.9 2.6 0.00 0.00 0.00 75 1010.3
20260905235847 88 180 0.9 3.5 0.00 0.00 0.00 74 1010.2
20260905235354 88 171 1.7 4.3 0.00 0.00 0.00 74 1010.2
20260905234839 88 140 0.9 4.3 0.00 0.00 0.00 74 1010.3
20260905234344 88 150 1.7 3.5 0.00 0.00 0.00 74 1010.3
20260905233849 88 146 1.7 3.5 0.00 0.00 0.00 73 1010.3
20260905233355 89 125 2.6 4.3 0.00 0.00 0.00 72 1010.2
20260905232840 89 140 2.6 6.1 0.00 0.00 0.00 72 1010.1
20260905232348 89 167 2.6 6.1 0.00 0.00 0.00 71 1010.0
20260905231852 89 173 2.6 6.1 0.00 0.00 0.00 71 1010.1
20260905231340 89 202 3.5 6.1 0.00 0.00 0.00 70 1010.2
20260905230846 89 243 2.6 7.0 0.00 0.00 0.00 70 1010.2
20260905230332 89 137 2.6 9.6 0.00 0.00 0.00 70 1010.2
20260905225819 89 98 4.3 9.6 0.00 0.00 0.00 69 1010.1
20260905225327 89 206 5.2 9.6 0.00 0.00 0.00 69 1010.0
20260905224814 90 189 4.3 7.8 0.00 0.00 0.00 69 1009.9
20260905224322 90 204 4.3 9.6 0.00 0.00 0.00 69 1010.0
20260905223827 90 159 4.3 10.4 0.00 0.00 0.00 70 1010.0
20260905223314 90 143 4.3 10.4 0.00 0.00 0.00 69 1010.1
20260905222819 90 165 4.3 12.2 0.00 0.00 0.00 68 1010.1
20260905222328 90 173 5.2 8.7 0.00 0.00 0.00 69 1010.2
20260905221815 90 181 6.1 10.4 0.00 0.00 0.00 68 1010.1
20260905221320 90 219 4.3 10.4 0.00 0.00 0.00 68 1010.1
20260905220825 90 147 4.3 9.6 0.00 0.00 0.00 68 1010.0
20260905220329 90 217 5.2 10.4 0.00 0.00 0.00 68 1009.9
20260905215819 90 171 6.1 10.4 0.00 0.00 0.00 67 1009.9
20260905215325 90 134 4.3 10.4 0.00 0.00 0.00 68 1009.9
20260905214815 90 130 5.2 10.4 0.00 0.00 0.00 67 1009.8
20260905214320 90 154 6.1 10.4 0.00 0.00 0.00 66 1009.8
20260905213827 90 146 6.1 12.2 0.00 0.00 0.00 67 1009.8
20260905213315 91 150 6.1 10.4 0.00 0.00 0.00 67 1009.9
20260905212822 91 132 6.1 10.4 0.00 0.00 0.00 65 1010.1
20260905212352 91 186 5.2 13.0 0.00 0.00 0.00 65 1010.2
20260905211838 91 136 5.2 13.0 0.00 0.00 0.00 66 1010.3
20260905211326 91 157 5.2 13.9 0.00 0.00 0.00 66 1010.3
20260905210832 91 160 7.0 13.9 0.00 0.00 0.00 67 1010.3
20260905210318 91 186 6.1 12.2 0.00 0.00 0.00 66 1010.4
20260905205822 92 190 5.2 8.7 0.00 0.00 0.00 66 1010.6
20260905205331 92 123 4.3 8.7 0.00 0.00 0.00 65 1010.7
20260905204817 91 184 4.3 12.2 0.00 0.00 0.00 66 1010.8
20260905204327 91 189 5.2 12.2 0.00 0.00 0.00 65 1010.8
20260905203813 91 182 6.1 13.0 0.00 0.00 0.00 65 1010.9
20260905203321 91 170 5.2 12.2 0.00 0.00 0.00 65 1010.9
20260905202826 91 178 6.1 12.2 0.00 0.00 0.00 63 1011.0
20260905202315 91 160 5.2 12.2 0.00 0.00 0.00 62 1011.1
20260905201821 91 194 6.1 12.2 0.00 0.00 0.00 60 1011.1
20260905201331 91 334 5.2 10.4 0.00 0.00 0.00 61 1011.3
20260905200816 91 79 4.3 13.0 0.00 0.00 0.00 60 1011.5
20260905200326 91 130 7.0 13.0 0.00 0.00 0.00 61 1011.7
20260905195831 91 134 3.5 10.4 0.00 0.00 0.00 62 1011.7